This demonstration page uses our WeatherBlox Daily Observations layout. Learn more.

Left ArrowRight Arrow

53.62937, 11.41316

Hourly Observations for December 29, 2021

Temp ( °F °C ) Dew Point ( °F °C ) Humidity (%) Winds ( mph kmh ) Pressure ( in mb ) Visibility ( mi km ) Precip ( " mm )
12:20 am 00:20 Mostly Clear 34 1 34 1 100 100 VRB 2 4 29.41 996 2 3 N/A
12:50 am 00:50 Mostly Clear 34 1 34 1 100 100 E 2 4 29.41 996 2 3 N/A
1:20 am 01:20 Mostly Clear 34 1 34 1 100 100 NE 5 7 29.41 996 2 3 N/A
1:50 am 01:50 Mostly Clear 34 1 34 1 100 100 NE 2 4 29.44 997 1 1 N/A
2:20 am 02:20 Mostly Clear 34 1 34 1 100 100 ENE 3 6 29.44 997 1 1 N/A
2:50 am 02:50 Mostly Clear 34 1 34 1 100 100 ENE 2 4 29.44 997 0 1 N/A
3:20 am 03:20 Mostly Clear 34 1 34 1 100 100 Calm 29.47 998 1 1 N/A
3:50 am 03:50 Mostly Clear 34 1 32 0 93 93 ENE 3 6 29.47 998 1 1 N/A
4:20 am 04:20 Mostly Clear 34 1 34 1 100 100 ENE 2 4 29.50 999 1 1 N/A
4:50 am 04:50 Mostly Clear 34 1 34 1 100 100 VRB 1 2 29.50 999 1 1 N/A
5:20 am 05:20 Mostly Cloudy 34 1 34 1 100 100 Calm 29.50 999 0 1 N/A
5:50 am 05:50 Mostly Cloudy 34 1 34 1 100 100 Calm 29.50 999 0 1 N/A
6:20 am 06:20 Mostly Cloudy with Fog 34 1 34 1 100 100 WSW 2 4 29.53 1000 1 1 N/A
6:50 am 06:50 Mostly Cloudy with Fog 34 1 34 1 100 100 SW 1 2 29.53 1000 1 1 N/A
7:20 am 07:20 Mostly Cloudy with Fog 34 1 34 1 100 100 NW 2 4 29.56 1001 1 1 N/A
7:50 am 07:50 Mostly Cloudy with Mist and Fog 34 1 34 1 100 100 NNW 3 6 29.56 1001 1 1 N/A
8:20 am 08:20 Mostly Cloudy with Mist and Fog 34 1 34 1 100 100 VRB 2 4 29.59 1002 1 1 N/A
8:50 am 08:50 Mostly Cloudy with Mist and Fog 34 1 34 1 100 100 NW 1 2 29.59 1002 1 1 N/A
9:20 am 09:20 Mostly Cloudy with Mist and Fog 34 1 34 1 100 100 WSW 2 4 29.62 1003 1 1 N/A
9:50 am 09:50 Mostly Cloudy with Mist and Fog 34 1 34 1 100 100 SW 3 6 29.62 1003 1 1 N/A
10:20 am 10:20 Mostly Cloudy with Mist and Fog 34 1 34 1 100 100 WSW 2 4 29.65 1004 1 1 N/A
11:20 am 11:20 Mostly Cloudy with Mist and Fog 36 2 36 2 100 100 Calm 29.65 1004 1 2 N/A
11:50 am 11:50 Mostly Cloudy with Mist and Fog 36 2 34 1 93 93 VRB 2 4 29.65 1004 1 1 N/A
12:20 pm 12:20 Cloudy with Mist and Fog 36 2 36 2 100 100 VRB 1 2 29.65 1004 1 2 N/A
12:50 pm 12:50 Mostly Cloudy with Mist and Fog 36 2 36 2 100 100 Calm 29.65 1004 1 2 N/A
1:20 pm 13:20 Mostly Cloudy with Mist and Fog 36 2 36 2 100 100 VRB 2 4 29.68 1005 2 3 N/A
1:50 pm 13:50 Mostly Cloudy with Mist and Fog 36 2 36 2 100 100 VRB 1 2 29.68 1005 2 3 N/A
2:20 pm 14:20 Mostly Cloudy with Mist and Fog 36 2 36 2 100 100 VRB 2 4 29.68 1005 2 3 N/A
2:50 pm 14:50 Mostly Cloudy with Mist and Fog 36 2 36 2 100 100 VRB 2 4 29.71 1006 2 3 N/A
3:20 pm 15:20 Mostly Cloudy with Mist and Fog 36 2 36 2 100 100 VRB 1 2 29.71 1006 2 4 N/A
3:50 pm 15:50 Mostly Cloudy with Mist and Fog 36 2 36 2 100 100 VRB 2 4 29.71 1006 2 3 N/A
4:20 pm 16:20 Cloudy with Mist and Fog 36 2 36 2 100 100 VRB 2 4 29.71 1006 2 4 N/A
4:50 pm 16:50 Cloudy with Mist and Fog 36 2 36 2 100 100 VRB 2 4 29.71 1006 2 4 N/A
5:20 pm 17:20 Mostly Cloudy with Fog 36 2 36 2 100 100 SSE 3 6 29.71 1006 0 1 N/A
5:50 pm 17:50 Cloudy with Fog 36 2 36 2 100 100 SSE 3 6 29.71 1006 0 0 N/A
6:20 pm 18:20 Mostly Cloudy with Fog 36 2 36 2 100 100 SSE 3 6 29.71 1006 0 1 N/A
6:50 pm 18:50 Mostly Cloudy with Fog 36 2 36 2 100 100 SSE 5 7 29.68 1005 0 1 N/A
7:20 pm 19:20 Mostly Cloudy with Fog 36 2 36 2 100 100 SSE 3 6 29.68 1005 0 1 N/A
7:50 pm 19:50 Mostly Cloudy with Fog 36 2 36 2 100 100 S 3 6 29.71 1006 0 1 N/A
8:20 pm 20:20 Mostly Cloudy with Fog 36 2 36 2 100 100 SE 6 9 29.71 1006 0 1 N/A
8:50 pm 20:50 Mostly Cloudy with Fog 36 2 36 2 100 100 SSE 3 6 29.71 1006 1 1 N/A
9:20 pm 21:20 Mostly Cloudy 37 3 37 3 100 100 SSE 6 9 29.68 1005 1 1 N/A
9:50 pm 21:50 Mostly Clear 37 3 37 3 100 100 SSE 6 9 29.68 1005 1 2 N/A
10:20 pm 22:20 Partly Cloudy 37 3 37 3 100 100 SE 7 11 29.68 1005 1 1 N/A
10:50 pm 22:50 Mostly Clear 37 3 37 3 100 100 S 6 9 29.68 1005 1 2 N/A
11:20 pm 23:20 Mostly Cloudy 39 4 37 3 93 93 SSE 7 11 29.68 1005 1 1 N/A
11:50 pm 23:50 Mostly Cloudy 39 4 37 3 93 93 SSE 6 9 29.68 1005 1 1 N/A

Powered by AerisWeather